EW1090 Weather Reports


time (UTC)temp
C
wind
direction
speed
KPH
gust
KPH
rain 1hr
cm
rain 24hr
cm
rain mn
cm
humidity
%
barometer
mb
20260510190819 28 59 0.0 8.0 0.08 3.30 0.25 63 1014.9
20260510190336 28 78 0.0 8.0 0.08 3.30 0.25 62 1015.0
20260510185853 29 82 0.0 0.0 0.08 3.30 0.25 63 1014.9
20260510185327 29 80 0.0 4.8 0.08 3.30 0.25 62 1014.8
20260510184824 28 134 0.0 4.8 0.10 3.30 0.25 64 1014.8
20260510184320 28 100 0.0 0.0 0.08 3.28 0.23 63 1014.9
20260510183816 28 98 0.0 3.2 0.08 3.28 0.23 64 1015.0
20260510183332 28 154 0.0 16.1 0.10 3.28 0.23 65 1015.0
20260510182828 28 166 1.6 9.7 0.10 3.28 0.23 64 1015.1
20260510182323 28 146 0.0 12.9 0.08 3.25 0.20 64 1015.2
20260510181818 28 92 3.2 12.9 0.08 3.25 0.20 65 1015.3
20260510181314 28 76 0.0 11.3 0.10 3.56 0.20 67 1015.3
20260510180823 28 113 3.2 11.3 0.08 3.53 0.18 67 1015.4
20260510180318 28 127 3.2 9.7 0.08 3.53 0.18 66 1015.7
20260510175835 28 63 0.0 0.0 0.10 3.53 0.18 66 1015.8
20260510175351 28 131 0.0 0.0 0.10 3.53 0.18 65 1015.8
20260510174827 28 138 0.0 0.0 0.10 3.51 0.15 65 1015.9
20260510174342 28 74 0.0 0.0 0.10 3.51 0.15 65 1015.9
20260510173826 28 78 0.0 0.0 0.10 3.51 0.15 64 1015.9
20260510173322 28 86 0.0 0.0 0.10 3.48 0.13 66 1015.9
20260510172839 28 178 0.0 9.7 0.10 3.48 0.13 64 1016.0
20260510172315 28 138 0.0 9.7 0.10 3.48 0.13 63 1016.0
20260510171824 28 129 0.0 0.0 0.10 3.45 0.10 64 1016.0
20260510171320 28 104 0.0 4.8 0.10 3.78 0.10 66 1016.1
20260510170837 27 109 0.0 6.4 0.10 3.78 0.10 68 1016.2
20260510170332 27 46 0.0 6.4 0.10 3.76 0.08 66 1016.3
20260510165827 27 88 0.0 4.8 0.10 3.76 0.08 65 1016.3
20260510165343 27 78 0.0 3.2 0.10 3.76 0.08 68 1016.4
20260510164838 27 104 0.0 1.6 0.10 3.73 0.05 67 1016.3
20260510164333 27 337 0.0 11.3 0.10 3.73 0.05 69 1016.3
20260510163830 27 77 1.6 11.3 0.10 3.73 0.05 67 1016.2
20260510163346 27 87 0.0 0.0 0.08 3.71 0.03 68 1016.3
20260510162819 27 51 0.0 1.6 0.10 3.71 0.03 70 1016.3
20260510162335 27 106 0.0 1.6 0.10 3.71 0.03 70 1016.3
20260510161851 27 85 0.0 0.0 0.08 3.68 0.00 68 1016.3
20260510161325 27 78 0.0 8.0 0.08 3.99 3.68 70 1016.4
20260510160822 27 160 0.0 8.0 0.08 3.99 3.68 70 1016.4
20260510160317 26 132 0.0 8.0 0.08 3.96 3.66 71 1016.2
20260510155320 26 161 0.0 0.0 0.08 3.96 3.66 71 1016.0
20260510154816 26 65 0.0 4.8 0.05 3.94 3.63 73 1016.0
20260510154326 26 140 0.0 3.2 0.08 3.94 3.63 74 1016.0
20260510153824 25 118 0.0 1.6 0.08 3.94 3.63 73 1016.0
20260510153318 25 97 0.0 1.6 0.05 3.91 3.61 77 1016.0
20260510152813 25 19 0.0 4.8 0.05 3.91 3.61 78 1016.1
20260510152330 25 15 0.0 4.8 0.05 3.91 3.61 79 1016.1
20260510151825 25 38 0.0 4.8 0.08 3.91 3.61 79 1016.2
20260510151321 25 87 0.0 8.0 0.08 4.24 3.61 78 1016.2
20260510150833 25 91 0.0 3.2 0.05 4.22 3.58 81 1016.3
20260510150351 24 28 0.0 0.0 0.05 4.22 3.58 81 1016.3
20260510145825 24 89 0.0 0.0 0.08 4.22 3.58 79 1016.4
20260510145320 24 44 0.0 6.4 0.08 4.22 3.58 82 1016.4
20260510144816 23 80 0.0 6.4 0.08 4.22 3.58 81 1016.5
20260510144332 23 17 0.0 6.4 0.05 4.19 3.56 83 1016.5
20260510143854 23 84 0.0 6.4 0.05 4.19 3.56 83 1016.4
20260510143328 23 318 0.0 8.0 0.08 4.19 3.56 84 1016.3
20260510142824 23 96 0.0 8.0 0.08 4.19 3.56 86 1016.2
20260510142341 22 57 1.6 4.8 0.05 4.17 3.53 86 1016.3
20260510141836 22 147 0.0 4.8 0.05 4.17 3.53 87 1016.2
20260510141332 22 74 0.0 4.8 0.05 4.57 3.53 89 1016.2
20260510140826 22 78 0.0 8.0 0.08 4.57 3.53 90 1016.2
20260510140322 22 58 0.0 8.0 0.08 4.57 3.53 92 1016.1
20260510135819 22 90 0.0 4.8 0.05 4.55 3.51 93 1016.0
20260510135315 22 90 0.0 3.2 0.05 4.55 3.51 93 1016.2
20260510134832 21 90 1.6 6.4 0.05 4.55 3.51 93 1016.2
20260510134327 21 63 1.6 6.4 0.05 4.55 3.51 93 1016.2
20260510133835 21 76 1.6 4.8 0.08 4.55 3.51 93 1016.1
20260510133332 21 86 1.6 11.3 0.05 4.52 3.48 93 1016.1
20260510132829 21 115 1.6 11.3 0.05 4.52 3.48 93 1016.1
20260510132323 21 108 0.0 3.2 0.05 4.52 3.48 93 1016.0
20260510131819 21 62 0.0 3.2 0.05 4.52 3.48 94 1015.8
20260510131315 21 107 0.0 4.8 0.08 4.55 3.48 94 1015.8
20260510130831 21 107 0.0 4.8 0.05 4.52 3.45 94 1015.8
20260510130326 21 98 0.0 4.8 0.05 4.52 3.45 94 1015.5
20260510125833 21 101 0.0 0.0 0.05 4.52 3.45 94 1015.5
20260510125349 21 86 0.0 0.0 0.05 4.52 3.45 94 1015.4
20260510124823 20 86 0.0 0.0 0.08 4.52 3.45 94 1015.4
20260510124320 20 71 0.0 0.0 0.05 4.50 3.43 93 1015.3
20260510123835 20 71 0.0 0.0 0.05 4.50 3.43 94 1015.1
20260510123329 20 71 526.3 526.3 0.05 0.48 3.43 93 1015.1
20260510122824 20 71 0.0 0.0 0.05 4.50 3.43 93 1015.0
20260510122340 20 71 0.0 0.0 0.08 4.50 3.43 94 1014.9
20260510121817 20 71 0.0 0.0 0.08 4.50 3.43 93 1014.9
20260510121333 20 71 0.0 0.0 0.05 4.47 3.40 93 1014.9
20260510120830 20 71 0.0 0.0 0.05 4.47 3.40 93 1014.8
20260510120326 20 71 0.0 0.0 0.05 4.47 3.40 93 1014.8
20260510115822 20 71 0.0 0.0 0.08 4.47 3.40 93 1014.7
20260510115317 20 71 0.0 0.0 0.08 4.47 3.40 93 1014.6
20260510114814 20 71 0.0 0.0 0.05 4.45 3.38 93 1014.5
20260510114329 20 71 0.0 0.0 0.05 4.45 3.38 93 1014.4
20260510113826 20 71 0.0 0.0 0.05 4.45 3.38 93 1014.4
20260510113321 20 71 0.0 0.0 0.08 4.45 3.38 93 1014.1
20260510112323 20 74 0.0 4.8 0.05 4.42 3.35 93 1014.0
20260510111818 20 71 0.0 4.8 0.05 4.42 3.35 93 1014.0
20260510111314 20 100 0.0 6.4 0.08 4.42 3.35 93 1014.0
20260510110830 20 100 1.6 6.4 0.08 4.42 3.35 93 1014.0
20260510110327 20 74 0.0 4.8 0.08 4.42 3.35 92 1013.8
20260510105823 20 94 0.0 3.2 0.05 4.39 3.33 92 1013.7
20260510105320 20 94 0.0 3.2 0.08 4.39 3.33 93 1013.6
20260510104836 20 105 0.0 1.6 0.08 4.39 3.33 93 1013.4
20260510104332 20 104 0.0 4.8 0.08 4.39 3.33 93 1013.4
20260510103828 20 74 0.0 3.2 0.05 4.37 3.30 93 1013.2
20260510103324 20 74 0.0 0.0 0.05 4.37 3.30 93 1013.1
20260510102821 20 74 0.0 0.0 0.08 4.37 3.30 93 1013.1
20260510102317 20 74 0.0 0.0 0.08 4.37 3.30 93 1013.0
20260510101833 20 74 0.0 0.0 0.08 4.37 3.30 93 1012.9
20260510101329 20 74 0.0 0.0 0.05 4.34 3.28 93 1012.8
20260510100817 20 74 0.0 0.0 0.08 4.34 3.28 93 1012.8
20260510100333 20 74 0.0 0.0 0.08 4.34 3.28 93 1012.7
20260510095830 20 74 0.0 0.0 0.08 4.34 3.28 93 1012.7
20260510095346 20 74 0.0 1.6 0.05 4.32 3.25 93 1012.7
20260510094821 20 74 0.0 1.6 0.08 4.32 3.25 93 1012.7
20260510094333 20 72 0.0 0.0 0.08 4.32 3.25 93 1012.7
20260510093849 20 72 0.0 0.0 0.08 4.32 3.25 93 1012.7
20260510093345 20 72 0.0 0.0 0.08 4.32 3.25 93 1012.7
20260510092841 20 72 0.0 0.0 0.08 4.29 3.23 93 1012.7
20260510092316 20 72 0.0 0.0 0.08 4.29 3.23 93 1012.6
20260510091831 20 72 0.0 1.6 0.08 4.29 3.23 93 1012.5
20260510091326 20 72 0.0 1.6 0.08 4.29 3.23 93 1012.5
20260510090825 20 68 0.0 0.0 0.08 4.27 3.20 93 1012.4
20260510090322 20 31 0.0 0.0 0.08 4.27 3.20 93 1012.4
20260510085818 20 31 0.0 0.0 0.08 4.27 3.20 93 1012.4
20260510085314 20 31 0.0 0.0 0.08 4.27 3.20 93 1012.5
20260510084829 20 31 0.0 0.0 0.08 4.24 3.17 93 1012.6
20260510084325 20 31 0.0 0.0 0.08 4.24 3.17 93 1012.5
20260510083843 20 355 0.0 0.0 0.08 4.24 3.17 93 1012.5
20260510083318 20 355 0.0 0.0 0.08 4.24 3.17 93 1012.5
20260510082814 20 355 0.0 4.8 0.08 4.22 3.15 94 1012.6
20260510082331 20 355 0.0 4.8 0.08 4.22 3.15 94 1012.6
20260510081828 20 26 0.0 4.8 0.08 4.22 3.15 94 1012.5
20260510081325 20 345 0.0 4.8 0.10 4.22 3.15 94 1012.4
20260510080836 19 29 0.0 0.0 0.08 4.19 3.12 93 1012.2
20260510080331 19 106 0.0 0.0 0.08 4.19 3.12 93 1012.2
20260510075847 18 106 0.0 0.0 0.08 4.19 3.12 92 1012.2
20260510075322 18 106 0.0 0.0 0.10 4.19 3.12 92 1012.2
20260510074839 18 106 0.0 0.0 0.08 4.17 3.10 92 1012.2
20260510074316 18 106 0.0 0.0 0.08 4.17 3.10 92 1012.2
20260510073833 18 106 0.0 0.0 0.10 4.17 3.10 92 1012.2
20260510073329 18 106 0.0 0.0 0.10 4.17 3.10 92 1012.1
20260510072841 18 106 0.0 0.0 0.08 4.14 3.07 92 1012.0
20260510072315 18 106 0.0 0.0 0.08 4.14 3.07 92 1011.9
20260510071831 18 106 0.0 0.0 0.10 4.14 3.07 92 1011.9
20260510071348 18 106 0.0 0.0 0.08 4.11 3.05 92 1011.9
20260510070823 18 106 0.0 0.0 0.08 4.11 3.05 92 1011.9
20260510070320 18 106 0.0 0.0 0.10 4.11 3.05 92 1012.0
20260510065817 19 106 0.0 0.0 0.10 4.11 3.05 92 1012.1
20260510065314 19 106 0.0 0.0 0.08 4.09 3.02 92 1012.2
20260510064831 19 106 0.0 0.0 0.10 4.09 3.02 92 1012.3
20260510064328 19 106 0.0 0.0 0.10 4.09 3.02 92 1012.2
20260510063824 19 106 0.0 0.0 0.08 4.06 3.00 92 1012.1
20260510063321 19 106 0.0 0.0 0.10 4.06 3.00 92 1012.0
20260510062818 19 106 0.0 0.0 0.10 4.06 3.00 92 1012.0
20260510062315 19 106 0.0 0.0 0.10 4.06 3.00 92 1012.0
20260510061831 19 106 0.0 0.0 0.10 4.04 2.97 92 1012.0
20260510061328 19 106 0.0 0.0 0.10 4.04 2.97 92 1012.2
20260510060823 19 106 0.0 0.0 0.10 4.04 2.97 92 1012.2
20260510060320 19 106 0.0 0.0 0.10 4.01 2.95 92 1012.2
20260510055756 19 106 0.0 0.0 0.10 4.01 2.95 91 1012.2
20260510055313 19 106 0.0 0.0 0.10 4.01 2.95 91 1012.2
20260510054831 19 106 0.0 0.0 0.10 3.99 2.92 92 1012.3
20260510054327 20 106 0.0 0.0 0.10 3.99 2.92 92 1012.1
20260510053801 19 106 0.0 0.0 0.13 3.99 2.92 91 1012.0
20260510053257 20 106 0.0 0.0 0.10 3.96 2.90 91 1011.9
20260510052813 20 106 0.0 0.0 0.10 3.96 2.90 91 1012.0
20260510052310 20 106 0.0 0.0 0.13 3.96 2.90 91 1012.0
20260510051807 20 106 0.0 0.0 0.10 3.94 2.87 91 1012.0
20260510051303 20 106 0.0 0.0 0.10 3.94 2.87 92 1012.0
20260510050758 20 106 0.0 0.0 0.13 3.94 2.87 92 1012.0
20260510050313 20 106 0.0 0.0 0.10 3.91 2.84 91 1012.1
20260510045803 20 106 0.0 0.0 0.13 3.91 2.84 91 1012.2
20260510045300 20 106 0.0 0.0 0.13 3.91 2.84 92 1012.1
20260510044756 20 106 0.0 0.0 0.10 3.89 2.82 91 1012.1
20260510044312 20 106 0.0 0.0 0.13 3.89 2.82 91 1012.1
20260510043828 20 106 0.0 0.0 0.10 3.86 2.79 91 1012.2
20260510043304 20 106 0.0 0.0 0.13 3.86 2.79 91 1012.3
20260510042821 20 106 0.0 0.0 0.13 3.86 2.79 91 1012.4
20260510042336 20 106 0.0 0.0 0.13 3.84 2.77 91 1012.5
20260510041812 20 92 0.0 1.6 0.13 3.84 2.77 91 1012.4
20260510041308 20 92 0.0 8.0 0.13 3.84 2.77 91 1012.3
20260510040304 20 84 0.0 8.0 0.13 3.81 2.74 91 1012.3
20260510035802 20 132 1.6 8.0 0.13 3.78 2.72 91 1012.2
20260510035313 20 244 0.0 0.0 0.13 3.78 2.72 91 1012.4
20260510034828 20 169 0.0 0.0 0.15 3.78 2.72 91 1012.5
20260510034304 20 195 0.0 4.8 0.13 3.76 2.69 91 1012.6
20260510033758 20 207 1.6 4.8 0.13 3.76 2.69 91 1012.7
20260510033315 20 215 0.0 3.2 0.13 3.73 2.67 91 1012.8
20260510032812 20 126 0.0 0.0 0.13 3.73 2.67 91 1012.9
20260510032308 20 126 0.0 0.0 0.13 3.71 2.64 91 1012.8
20260510031804 20 126 0.0 0.0 0.13 3.71 2.64 91 1012.8
20260510031300 20 126 0.0 0.0 0.15 3.71 2.64 91 1012.9
20260510030757 20 126 0.0 0.0 0.13 3.68 2.62 91 1012.9
20260510030312 20 126 0.0 0.0 0.15 3.68 2.62 91 1012.9
20260510025809 20 126 0.0 0.0 0.13 3.66 2.59 91 1013.0
20260510025306 20 126 0.0 0.0 0.15 3.66 2.59 91 1013.0
20260510024801 20 126 0.0 0.0 0.13 3.63 2.57 91 1013.1
20260510024257 20 126 0.0 0.0 0.15 3.63 2.57 91 1013.0
20260510023814 20 126 0.0 0.0 0.15 3.63 2.57 91 1012.9
20260510023312 20 126 0.0 1.6 0.15 3.61 2.54 91 1012.7
20260510022807 20 126 0.0 3.2 0.15 3.61 2.54 91 1012.6
20260510022306 20 121 0.0 3.2 0.15 3.58 2.51 91 1012.6
20260510021819 20 218 0.0 3.2 0.15 3.58 2.51 91 1012.4
20260510021336 20 222 0.0 0.0 0.15 3.56 2.49 90 1012.3
20260510020311 20 211 0.0 3.2 0.15 3.53 2.46 91 1012.3
20260510015808 20 217 0.0 3.2 0.18 3.53 2.46 91 1012.3
20260510015306 20 217 0.0 3.2 0.15 3.51 2.44 91 1012.4
20260510014801 20 217 0.0 3.2 0.18 3.51 2.44 91 1012.2
20260510014257 20 217 0.0 6.4 0.15 3.48 2.41 91 1012.2
20260510013814 20 82 0.0 12.9 0.18 3.48 2.41 91 1012.1
20260510013310 20 118 3.2 12.9 0.15 3.45 2.39 91 1012.0
20260510012826 20 156 0.0 3.2 0.18 3.45 2.39 91 1011.9
20260510012301 20 134 0.0 0.0 0.18 3.43 2.36 91 1012.0
20260510011758 20 132 0.0 6.4 0.18 3.43 2.36 91 1012.0
20260510011315 20 132 1.6 6.4 0.18 3.40 2.34 91 1011.8
20260510010812 20 104 0.0 6.4 0.18 3.40 2.34 91 1011.8
20260510010309 20 154 1.6 6.4 0.18 3.38 2.31 91 1011.9
20260510005805 20 132 0.0 3.2 0.18 3.35 2.29 91 1011.9
20260510005300 20 102 0.0 8.0 0.18 3.35 2.29 91 1012.0
20260510004816 20 99 1.6 8.0 0.18 3.33 2.26 91 1011.9
20260510004313 20 113 0.0 9.7 0.20 3.33 2.26 91 1011.9
20260510003809 20 86 3.2 9.7 0.18 3.30 2.24 91 1011.9
20260510003305 20 152 0.0 0.0 0.20 3.30 2.24 91 1011.9
20260510002802 20 137 0.0 0.0 0.20 3.28 2.21 91 1011.9
20260510002319 20 137 0.0 0.0 0.18 3.25 2.18 91 1011.9
20260510001836 20 164 0.0 0.0 0.20 3.25 2.18 91 1012.0
20260510001312 20 164 0.0 0.0 0.20 3.45 2.16 91 1011.9
20260510000807 20 155 0.0 0.0 0.20 3.43 2.13 90 1011.9
20260510000320 20 155 0.0 0.0 0.20 3.43 2.13 91 1011.8
20260509235814 20 155 0.0 0.0 0.20 3.40 2.11 91 1011.8
20260509235310 20 118 0.0 0.0 0.23 3.40 2.11 91 1011.9
20260509234808 20 172 0.0 0.0 0.20 3.38 2.08 90 1011.8
20260509234325 20 160 0.0 0.0 0.20 3.35 2.06 91 1011.7
20260509233800 20 121 0.0 0.0 0.23 3.35 2.06 91 1011.8
20260509233317 21 167 0.0 0.0 0.23 3.33 2.03 91 1011.8
20260509232833 21 132 0.0 0.0 0.20 3.30 2.01 91 1011.8
20260509232327 21 132 0.0 0.0 0.23 3.30 2.01 91 1012.2
20260509231824 21 132 0.0 0.0 0.23 3.28 1.98 91 1012.2
20260509231258 21 132 0.0 0.0 0.23 3.61 1.96 91 1012.1
20260509230815 21 132 0.0 0.0 0.23 3.58 1.93 91 1012.1
20260509230313 21 119 0.0 0.0 0.23 3.58 1.93 91 1012.0
20260509225809 21 229 0.0 0.0 0.23 3.56 1.91 91 1012.2
20260509225306 21 236 0.0 0.0 0.23 3.53 1.88 91 1012.0
20260509224801 21 147 0.0 0.0 0.25 3.53 1.88 91 1011.8
20260509224258 21 207 0.0 0.0 0.25 3.51 1.85 91 1011.8
20260509223814 21 193 0.0 0.0 0.25 3.48 1.83 90 1011.8
20260509223311 21 195 0.0 0.0 0.23 3.45 1.80 91 1011.7
20260509222807 21 202 0.0 0.0 0.25 3.45 1.80 91 1011.4
20260509222306 21 185 0.0 0.0 0.25 3.43 1.78 91 1011.1
20260509221820 21 180 0.0 0.0 0.25 3.40 1.75 90 1011.0
20260509221336 21 180 0.0 0.0 0.25 3.86 1.73 91 1011.0
20260509220832 21 180 0.0 0.0 0.25 3.84 1.70 91 1011.0
20260509220306 20 180 0.0 0.0 0.28 3.84 1.70 91 1011.1
20260509215803 20 180 0.0 0.0 0.28 3.81 1.68 91 1011.3
20260509215320 20 180 0.0 0.0 0.25 3.78 1.65 91 1011.4
20260509214833 20 159 0.0 0.0 0.28 3.76 1.63 91 1011.6
20260509214309 20 186 0.0 0.0 0.25 3.73 1.60 91 1011.7
20260509213804 20 330 0.0 0.0 0.25 3.71 1.57 91 1011.6
20260509213300 20 180 0.0 0.0 0.28 3.71 1.57 91 1011.4
20260509212816 20 179 0.0 0.0 0.28 3.68 1.55 91 1011.1
20260509212312 20 162 0.0 0.0 0.28 3.66 1.52 91 1010.9
20260509211807 20 167 0.0 0.0 0.28 3.63 1.50 91 1011.0
20260509211303 20 136 0.0 0.0 0.28 4.09 1.47 91 1010.9
20260509210801 20 173 0.0 0.0 0.25 4.06 1.45 92 1010.8
20260509210319 20 117 0.0 0.0 0.25 4.04 1.42 92 1010.8
20260509205834 20 128 0.0 8.0 0.25 4.01 1.40 92 1010.8
20260509204833 20 118 1.6 6.4 0.25 3.96 1.35 92 1010.7
20260509203810 20 162 0.0 4.8 0.28 3.94 1.32 92 1010.8
20260509203259 20 153 1.6 4.8 0.28 3.91 1.30 92 1011.0
20260509202813 20 161 0.0 0.0 0.28 3.89 1.27 92 1011.3
20260509202309 20 156 0.0 0.0 0.28 3.86 1.24 92 1011.3
20260509201805 20 203 0.0 0.0 0.28 3.84 1.22 92 1011.6
20260509201301 20 203 0.0 1.6 0.28 3.81 1.19 92 1011.9
20260509200816 20 203 0.0 1.6 0.30 3.81 1.19 92 1012.1
20260509200311 20 203 0.0 4.8 0.30 3.78 1.17 92 1012.2
20260509195808 20 192 0.0 3.2 0.30 3.76 1.14 92 1012.0
20260509195306 20 146 0.0 1.6 0.30 3.73 1.12 92 1012.1
20260509194800 20 146 0.0 1.6 0.30 3.71 1.09 92 1012.1
20260509193815 20 146 1.6 4.8 0.28 3.66 1.04 92 1012.1
20260509193311 20 146 0.0 3.2 0.28 3.63 1.02 92 1012.1
20260509192808 20 145 0.0 3.2 0.28 3.61 0.99 93 1012.2
20260509192325 20 125 0.0 0.0 0.28 3.58 0.97 92 1012.5
20260509191305 20 125 0.0 1.6 0.28 3.53 0.91 92 1012.9